Tucson, AZ

6:29 PM MST on August 22, 2019 (GMT -0700)
Tucson International

Weather History for KTUS - May, 2019

Change the Weather History Date:

Wednesday, May 29, 2019

  Actual Average Record
Temperature  
Mean Temperature 71 °F 80 °F  
Max Temperature 87 °F 96 °F 111 °F (1910)
Min Temperature 54 °F 64 °F 43 °F (1918)
Degree Days  
Heating Degree Days 0 0  
Month to date heating degree days 1 3  
Since 1 July heating degree days 1409 1509  
Cooling Degree Days 6 15  
Month to date cooling degree days 167 317  
Year to date cooling degree days 347 471  
Growing Degree Days 20 (Base 50)    
Moisture  
Dew Point 26 °F    
Average Humidity 18    
Maximum Humidity 35    
Minimum Humidity 4    
Precipitation  
Precipitation 0.00 in 0.01 in 0.37 in (1907)
Month to date precipitation 1.22 0.22  
Year to date precipitation 5.03 3.06  
Sea Level Pressure  
Sea Level Pressure 29.76 in    
Wind  
Wind Speed 6 mph (NNW)    
Max Wind Speed 15 mph    
Max Gust Speed 21 mph    
Visibility 10 miles    
Events      
T = Trace of Precipitation, MM = Missing Value Source: NWS Daily Summary

Daily Weather History Graph

Daily Weather History Graph

Search for Another Location

Airport or City:

Astronomy

May. 29, 2019 Rise Set
Actual Time 5:19 AM MST 7:23 PM MST
Civil Twilight 4:51 AM MST 7:51 PM MST
Nautical Twilight 4:17 AM MST 8:25 PM MST
Astronomical Twilight 3:41 AM MST 9:01 PM MST
Moon 2:37 AM MST (5/29) 2:55 PM MST (5/29)
Length of Visible Light 14h 59m
Length of Day
14h 04m
Waning Crescent, 22% of the Moon is Illuminated
May 29
Waning Crescent
Jun 3
New
Jun 9
First Quarter
Jun 17
Full
Jun 25
Last Quarter

Hourly Weather History & Observations

Time (MST) Temp. Dew Point Humidity Pressure Visibility Wind Dir Wind Speed Gust Speed Precip Events Conditions
12:53 AM 63.0 °F 26.1 °F 25% 29.75 in 10.0 mi West 6.9 mph - N/A   Clear
1:53 AM 61.0 °F 26.1 °F 26% 29.74 in 10.0 mi SSW 4.6 mph - N/A   Clear
2:53 AM 57.9 °F 26.1 °F 30% 29.73 in 10.0 mi SE 8.1 mph - N/A   Clear
3:53 AM 55.9 °F 25.0 °F 30% 29.74 in 10.0 mi SE 5.8 mph - N/A   Clear
4:53 AM 55.0 °F 24.1 °F 30% 29.75 in 10.0 mi SE 8.1 mph - N/A   Clear
5:53 AM 55.0 °F 27.0 °F 34% 29.76 in 10.0 mi SSE 5.8 mph - N/A   Clear
6:53 AM 57.9 °F 30.0 °F 35% 29.79 in 10.0 mi SSE 3.5 mph - N/A   Clear
7:53 AM 66.0 °F 30.9 °F 27% 29.80 in 10.0 mi SSE 4.6 mph - N/A   Clear
8:53 AM 70.0 °F 28.9 °F 22% 29.80 in 10.0 mi Calm Calm - N/A   Clear
9:53 AM 73.9 °F 28.0 °F 18% 29.80 in 10.0 mi Variable 3.5 mph - N/A   Clear
10:53 AM 79.0 °F 26.1 °F 14% 29.81 in 10.0 mi NNE 6.9 mph - N/A   Clear
11:53 AM 81.0 °F 24.1 °F 12% 29.79 in 10.0 mi NNE 6.9 mph - N/A   Clear
12:53 PM 81.0 °F 25.0 °F 13% 29.78 in 10.0 mi WNW 9.2 mph - N/A   Clear
1:53 PM 82.9 °F 26.1 °F 13% 29.76 in 10.0 mi Variable 4.6 mph - N/A   Clear
2:53 PM 82.9 °F 26.1 °F 13% 29.75 in 10.0 mi SSE 6.9 mph - N/A   Clear
3:53 PM 87.1 °F 24.1 °F 10% 29.73 in 10.0 mi North 5.8 mph - N/A   Clear
4:53 PM 84.9 °F 21.9 °F 10% 29.72 in 10.0 mi Variable 5.8 mph - N/A   Clear
5:53 PM 84.0 °F 21.9 °F 10% 29.72 in 10.0 mi Calm Calm - N/A   Clear
6:21 PM 84.0 °F 23.0 °F 11% 29.83 in 10.0 mi North 6.9 mph - N/A   Partly Cloudy
6:53 PM 82.9 °F 25.0 °F 12% 29.72 in 10.0 mi NNW 10.4 mph - N/A   Clear
7:53 PM 79.0 °F 26.1 °F 14% 29.73 in 10.0 mi NNW 8.1 mph - N/A   Clear
8:53 PM 75.9 °F 27.0 °F 16% 29.75 in 10.0 mi NNW 6.9 mph - N/A   Clear
9:53 PM 75.0 °F 28.0 °F 18% 29.76 in 10.0 mi NW 8.1 mph - N/A   Clear
10:53 PM 73.0 °F 28.9 °F 20% 29.76 in 10.0 mi NNW 4.6 mph - N/A   Clear
11:53 PM 66.9 °F 28.0 °F 23% 29.78 in 10.0 mi South 4.6 mph - N/A   Clear